Flag for Norway Weather past 2 weeks in Indre Arna, Norway

Now
63 °F

Mild.


Feels Like: 63 °F
Forecast: 55 / 71 °F
Wind: 3 mph from East

Location: Bergen / Florida

Current Time: Sep 3, 2015 at 12:31:05 AM

Latest Report: Sep 2, 2015 at 10:00 PM


Visibility: N/A

Pressure: 29.63 "Hg

Humidity: 44%

Dew point: 41 °F

Location of Indre ArnaLocation

Historic Weather in Indre Arna — Graph

°F

Indre Arna temperature yesterday

Maximum temperature yesterday: 70 °F (at 5:00 PM)
Minimum temperature yesterday: 54 °F (at 7:00 AM)
Average temperature yesterday: 61 °F

Past Weeks' High & Low Weather Summary

 TemperatureHumidityPressure
High81 °F (Aug 19, 2:00 PM)88% (Aug 29, 6:00 AM)30.24 "Hg (Aug 29, 6:00 AM)
Low51 °F (Sep 1, 6:00 AM)15% (Aug 19, 3:00 PM)29.44 "Hg (Aug 27, 7:00 AM)
Average64 °F61%29.90 "Hg
* Reported Aug 18 10:00 PM — Sep 2 10:00 PM, Indre Arna, Weather by CustomWeather, © 2015

Note: Actual official high and low records may vary slightly from our data, if they occured in-between our weather recording intervals... More about our weather records

Advertising

Indre Arna weather history for previous 24 hours

 ConditionsComfort  
Time TempWeatherWind HumidityBarometerVisibility
10:00 PM
Wed, Sep 2
63 °FMild.3 mph44%29.63 "HgN/A
9:00 PM64 °FMild.2 mph43%29.63 "HgN/A
8:00 PM65 °FScattered clouds.6 mph42%29.61 "Hg34 mi
7:00 PM67 °FMild.3 mph39%29.60 "HgN/A
6:00 PM67 °FMild.6 mph38%29.59 "HgN/A
5:00 PM70 °FScattered clouds.5 mph35%29.59 "Hg34 mi
4:00 PM69 °FMild.2 mph35%29.60 "HgN/A
3:00 PM67 °FMild.3 mph38%29.60 "HgN/A
2:00 PM61 °FPartly sunny.3 mph54%29.62 "Hg17 mi
12:00 PM60 °FRefreshingly cool.3 mph50%29.63 "HgN/A
11:00 AM58 °FLight rain. Overcast.2 mph58%29.64 "Hg14 mi
10:00 AM57 °FCool.3 mph65%29.65 "HgN/A
9:00 AM55 °FCool.5 mph74%29.66 "HgN/A
8:00 AM54 °FOvercast.6 mph76%29.68 "Hg14 mi
7:00 AM54 °FCool.5 mph77%29.70 "HgN/A
6:00 AM55 °FCool.5 mph73%29.72 "HgN/A
5:00 AM56 °FCool.2 mph66%29.73 "HgN/A
4:00 AM59 °FRefreshingly cool.3 mph58%29.75 "HgN/A
3:00 AM60 °FRefreshingly cool.3 mph56%29.75 "HgN/A
2:00 AM59 °FCool.3 mph63%29.77 "HgN/A
1:00 AM59 °FCool.5 mph65%29.78 "HgN/A
12:00 AM59 °FCool.5 mph64%29.80 "HgN/A
Weather by CustomWeather, © 2015

See weather overviewHow to use our weather pages